Theta_e
308 308 308 309 309 307 302 297 295 306 302 294 290 289 293 299 299 301 299 295 293 291 292 289 289 290 293 300 297 290 291 286 281 287 293 293 289 286 285 278 276 279 276 281
308 308 308 309 309 307 300 295 296 306 301 288 286 292 295 298 298 298 296 294 295 294 290 285 291 293 298 299 295 291 292 282 278 280 282 288 285 288 286 283 281 278 279 281
308 308 308 309 309 307 299 294 291 294 294 291 289 289 291 293 299 296 296 294 295 292 290 291 289 291 296 298 296 303 298 283 282 275 281 284 284 287 288 285 282 283 283 285
307 308 308 309 308 307 298 293 289 291 285 287 289 289 292 292 291 296 295 292 292 290 285 287 287 290 291 294 297 292 288 281 283 285 288 287 286 286 287 286 287 284 286 287
306 307 308 309 308 305 297 291 289 292 288 290 289 290 289 292 293 292 291 289 292 291 287 288 287 288 287 287 290 286 287 278 282 282 287 288 286 288 289 289 289 288 289 289
306 306 307 309 309 303 295 294 294 292 288 289 286 288 291 292 292 294 295 292 289 288 290 293 293 293 291 290 288 284 281 279 284 279 286 287 280 285 288 289 290 291 287 291
305 306 306 308 309 304 294 294 293 289 283 289 289 291 293 292 292 290 293 292 288 292 296 293 291 287 289 289 289 289 282 284 286 282 283 267 283 292 293 290 292 294 293 293
304 305 306 306 308 308 297 294 294 291 284 289 291 292 292 292 291 290 291 294 294 294 291 285 283 282 284 289 291 287 288 288 281 277 278 281 286 292 290 288 287 294 292 294
304 304 305 305 306 307 296 295 295 293 288 285 294 291 291 287 286 287 290 293 294 292 287 284 279 277 282 283 285 290 289 286 278 274 274 274 283 293 294 294 283 293 295 294
303 304 305 305 305 305 297 294 294 293 288 291 293 289 289 291 286 284 285 289 290 289 282 280 278 279 285 280 280 281 281 280 275 277 280 282 290 292 295 280 281 294 296 296
303 303 304 304 304 305 297 293 295 294 290 293 296 297 292 290 287 283 287 286 286 284 280 281 281 279 281 280 282 281 279 279 275 282 279 274 292 291 284 289 294 295 296 295
302 302 303 304 304 304 301 292 296 297 290 288 295 298 300 299 295 289 287 286 284 287 282 281 281 281 281 283 276 284 279 284 284 284 280 287 293 292 294 297 296 295 293 294
302 302 303 303 303 304 301 294 292 290 288 288 287 290 295 299 299 300 287 287 291 288 290 289 287 284 289 280 282 283 288 289 286 286 288 289 291 293 297 297 294 295 294 294
302 302 302 303 303 303 302 296 291 290 285 283 285 297 295 299 298 297 298 292 292 291 290 289 288 287 290 287 286 287 290 290 287 286 289 292 294 296 297 295 294 294 295 296
301 302 302 302 302 302 298 293 293 293 285 280 285 292 294 294 295 296 296 294 290 289 287 289 290 291 291 292 291 288 288 285 285 286 293 292 292 295 296 293 293 295 294 294
302 302 302 302 302 301 291 282 296 299 296 288 285 292 291 292 292 291 293 294 290 291 288 292 294 294 292 287 284 289 290 293 294 292 297 297 296 295 295 294 295 296 294 294
301 301 301 301 301 296 286 282 298 300 299 292 285 280 287 291 291 291 291 293 292 295 294 291 291 294 294 289 285 290 293 295 298 299 297 292 292 291 295 295 296 294 293 292
301 301 301 301 301 298 293 294 301 300 289 290 281 281 284 291 288 287 292 290 292 295 293 293 292 293 293 287 291 292 294 298 298 296 296 294 294 295 295 294 293 290 290 290
300 301 301 294 292 289 287 301 300 294 287 282 284 281 278 289 286 286 289 290 286 290 290 292 293 291 287 288 290 292 294 296 294 295 293 293 294 293 292 290 290 288 289 290
300 293 288 284 290 299 302 296 291 289 286 286 286 284 282 286 284 283 285 285 285 287 290 292 290 289 291 294 296 294 296 296 295 291 291 292 290 289 289 288 289 289 289 289
291 290 288 291 298 298 297 290 289 288 286 288 287 285 283 287 282 281 285 284 284 285 286 289 288 286 290 295 295 295 297 296 295 295 295 294 290 288 287 287 289 289 289 287
290 289 293 290 289 288 287 286 289 287 283 285 284 287 287 288 287 283 286 286 287 281 288 289 284 290 293 293 294 296 296 295 295 296 294 292 290 289 288 289 290 290 289 289
289 290 287 288 284 282 282 280 281 281 285 286 289 290 292 291 291 288 287 286 283 288 285 286 289 291 292 292 296 296 296 296 295 294 293 290 289 290 291 291 291 290 291 294
283 283 273 280 280 281 282 283 283 285 287 289 290 289 290 294 291 291 286 288 285 284 283 281 285 289 291 295 297 295 294 294 294 292 290 288 289 290 292 292 291 291 292 293
282 284 278 280 283 284 289 289 287 289 289 290 287 288 289 287 290 290 289 284 281 282 281 284 288 290 293 297 296 295 293 294 292 290 289 289 291 292 291 293 292 294 293 293
285 284 282 283 282 281 282 283 287 293 291 292 292 289 288 287 289 287 284 282 280 280 284 287 289 291 296 295 295 295 294 294 292 290 289 291 293 293 292 294 294 294 294 292
283 281 284 285 283 282 285 285 286 291 289 285 288 285 286 289 285 285 283 280 286 287 287 288 290 291 293 295 295 294 294 293 291 290 291 293 295 294 293 292 294 294 293 293
Wind_Speed
23 25 26 27 29 32 9 3 3 5 4 6 2 2 3 5 4 5 5 3 1 1 1 2 3 4 4 4 1 3 2 2 6 12 11 5 4 6 7 6 7 5 4 14
22 24 25 27 27 24 3 3 3 4 4 4 3 5 4 3 8 6 6 5 5 5 1 4 3 3 5 5 5 4 1 3 7 10 8 3 2 3 4 0 2 8 6 12
20 22 24 27 27 23 3 4 5 6 7 2 3 5 4 6 7 4 4 4 6 6 4 1 5 3 3 7 5 15 3 4 8 7 12 5 11 16 9 6 6 15 18 26
20 22 23 26 29 23 3 5 1 2 5 4 3 2 4 4 7 4 8 4 5 2 3 4 5 3 4 4 7 2 3 4 5 8 15 17 18 20 16 14 20 12 25 18
16 17 19 23 28 19 6 3 4 4 1 3 4 5 4 4 5 4 3 3 5 3 5 7 10 3 2 6 5 3 4 5 3 6 8 5 9 17 13 14 18 17 20 21
14 16 17 20 23 12 4 2 1 3 3 3 2 1 4 3 4 1 2 1 2 4 5 4 12 12 9 9 8 1 2 1 3 5 5 13 10 5 3 5 4 5 6 7
10 12 14 16 17 9 2 0 2 4 4 1 1 1 2 3 2 4 3 2 1 5 7 8 5 4 8 7 9 8 4 2 1 5 9 3 8 3 1 3 6 3 11 12
8 10 11 13 15 14 3 0 2 2 3 2 5 1 3 5 5 4 4 4 2 4 5 5 7 6 4 4 3 6 5 2 3 3 5 11 9 2 3 3 13 5 4 9
5 8 9 10 12 13 2 1 1 2 1 5 0 1 1 2 3 6 4 5 4 4 3 3 3 2 2 4 5 4 3 0 5 2 4 6 4 0 9 2 6 1 12 17
2 5 7 8 9 11 3 2 2 2 1 4 5 5 4 3 1 3 4 5 5 3 2 2 1 3 2 2 2 2 4 3 4 3 6 9 2 7 5 3 6 9 13 14
1 3 5 6 7 9 4 2 2 2 2 7 6 5 5 2 3 4 3 5 2 3 4 2 1 2 2 3 4 3 2 1 3 3 4 8 0 12 2 6 11 10 8 14
0 3 5 6 6 6 4 1 2 1 2 7 4 7 10 9 10 6 3 4 2 5 4 1 2 2 2 3 4 2 3 6 3 6 8 7 13 15 11 11 10 10 17 15
1 3 5 6 6 6 3 1 2 2 3 7 3 5 6 6 11 11 5 3 7 3 4 3 3 4 3 3 6 3 4 4 5 3 7 11 9 8 10 8 18 18 13 14
2 4 6 7 7 7 5 2 2 2 1 3 8 3 6 5 6 12 17 3 4 3 3 3 4 3 5 4 6 6 6 1 6 9 14 12 12 12 15 16 17 14 14 16
4 6 6 7 8 9 4 3 4 4 5 3 8 11 4 2 6 10 12 8 4 3 1 3 4 2 1 3 3 6 5 7 3 7 10 12 16 16 14 16 17 14 19 16
5 6 8 8 8 8 3 4 1 3 3 2 6 5 6 4 4 6 8 9 3 4 5 4 3 3 4 4 4 7 8 5 8 7 8 14 15 16 12 16 17 15 15 14
6 8 8 9 9 1 2 4 1 6 2 2 5 7 6 5 3 1 3 5 4 4 3 4 4 4 5 4 8 2 6 8 9 11 9 14 8 15 17 14 16 13 14 13
9 10 10 11 10 8 6 6 16 7 1 1 3 7 6 4 3 3 0 3 2 3 3 2 3 2 3 7 9 8 9 10 10 7 9 13 16 16 12 14 12 14 11 10
10 11 13 3 1 2 5 7 2 4 4 3 3 3 6 5 3 2 3 1 2 1 3 3 4 3 6 7 7 9 10 6 11 13 12 13 14 12 13 13 11 10 10 9
13 3 2 3 4 7 5 3 3 3 4 2 5 1 5 2 2 4 3 1 3 2 3 2 3 4 6 6 9 6 6 8 10 12 15 12 13 11 11 12 9 8 8 8
1 0 2 4 10 2 3 2 2 3 4 4 4 6 4 2 3 4 3 2 1 3 1 2 3 3 4 2 6 6 6 7 8 9 10 9 11 11 10 10 8 7 7 7
2 3 4 3 2 1 2 3 2 4 5 3 3 4 5 3 2 2 3 3 2 5 3 3 3 2 2 5 8 6 6 6 9 9 11 8 10 8 8 7 7 5 5 6
2 1 2 1 2 4 5 5 4 3 3 2 3 3 3 1 2 4 1 3 5 3 2 3 3 2 5 6 5 6 6 6 7 10 7 8 8 8 6 7 5 4 6 5
0 1 4 4 4 5 4 2 2 3 3 6 3 3 3 3 4 2 4 4 2 3 3 4 3 4 6 5 4 4 7 6 7 8 8 8 9 8 6 5 4 3 5 6
2 3 5 6 4 3 3 2 2 2 1 5 4 3 1 3 3 4 1 1 3 3 4 3 4 5 5 5 4 4 6 6 5 6 6 8 9 6 5 4 2 3 6 7
3 5 4 4 1 3 1 1 2 4 2 2 3 4 3 5 3 3 6 3 5 4 4 4 3 4 4 3 2 3 5 5 5 5 5 8 8 4 4 5 5 6 8 7
4 5 4 6 3 5 5 3 4 3 2 2 5 3 4 2 3 4 3 4 3 4 4 3 3 5 4 1 2 4 4 6 5 6 7 7 4 5 4 5 7 8 8 8
Wind_Direction
354 352 351 351 354 345 42 20 47 321 7 51 23 88 312 293 354 3 357 59 216 190 127 268 258 241 225 32 50 337 314 181 266 255 264 264 172 217 165 154 246 237 199 267
354 352 351 350 355 359 343 48 282 325 53 75 352 320 319 341 10 1 17 24 47 8 320 354 240 290 126 54 33 13 305 298 317 322 355 2 107 190 203 97 82 212 247 265
357 353 353 350 352 356 65 43 8 337 37 33 76 6 347 337 350 66 358 35 62 25 4 24 283 266 301 352 317 302 242 202 187 213 267 220 282 274 246 192 250 268 257 280
359 356 354 354 351 353 68 25 23 165 333 346 10 349 351 2 1 16 21 59 64 350 292 298 255 265 319 324 297 56 96 242 212 241 266 279 272 276 269 245 248 248 273 274
4 1 356 358 354 352 73 64 23 1 303 304 334 357 17 36 333 343 8 63 312 280 224 211 281 278 188 235 334 55 13 275 324 276 263 296 287 279 271 252 261 258 263 273
4 2 1 5 7 13 66 340 10 105 297 351 58 7 326 2 349 317 56 213 338 308 261 249 263 247 245 243 254 118 238 179 323 267 348 317 295 266 269 268 282 304 286 311
3 5 5 3 8 37 114 215 109 64 293 4 217 346 254 245 287 254 283 165 149 251 326 299 290 252 239 225 245 181 160 174 276 286 330 328 239 339 113 315 282 355 288 290
358 1 7 3 3 11 70 163 88 97 287 248 295 196 287 317 295 254 271 253 226 342 6 359 349 346 32 35 59 165 172 140 294 251 275 273 288 102 348 326 298 320 358 340
352 358 5 4 1 3 53 34 116 70 47 249 96 329 335 293 299 325 272 332 331 46 62 44 35 300 327 322 350 144 149 300 136 354 253 270 260 267 305 292 274 236 342 318
355 1 8 8 7 2 47 316 21 103 213 264 161 202 191 164 125 236 304 322 346 36 54 61 59 287 293 288 283 310 306 323 188 255 263 282 181 322 321 52 265 296 311 303
348 352 6 12 13 4 48 283 349 94 254 273 213 211 181 137 153 161 269 4 330 19 56 101 268 214 286 311 256 242 232 253 249 253 263 278 12 351 65 257 297 300 306 303
329 350 344 348 7 9 51 334 328 23 197 254 244 223 225 208 187 144 220 192 229 207 100 198 130 263 258 203 277 41 283 189 235 214 235 256 301 298 288 288 286 307 303 301
312 345 328 336 349 349 10 272 289 34 331 291 342 241 258 208 231 201 166 253 202 216 182 171 186 221 172 223 224 234 262 209 244 298 261 257 281 293 299 310 307 301 288 286
330 324 318 324 333 338 337 263 187 105 126 284 283 310 268 220 183 182 203 174 78 102 100 198 199 196 168 231 242 248 251 223 226 254 280 288 277 300 289 291 302 291 291 291
316 309 315 319 329 332 312 205 209 184 144 253 288 307 272 291 184 184 198 197 146 122 206 215 235 207 165 222 249 259 171 216 204 265 296 288 291 300 298 301 300 298 297 299
309 312 315 321 325 360 15 356 27 180 161 247 297 292 299 308 236 192 189 200 147 172 180 207 219 218 151 257 254 239 210 222 228 266 270 286 295 298 294 301 303 309 316 309
306 306 311 309 309 331 200 191 129 181 176 263 299 299 288 301 312 88 111 144 192 180 202 208 191 194 198 261 270 242 249 262 272 282 301 301 284 300 304 310 312 319 307 300
302 307 305 302 293 298 269 250 231 220 342 358 273 274 329 357 320 342 56 141 216 215 212 133 190 133 224 252 257 277 270 276 284 291 287 278 289 292 311 311 321 310 306 313
305 305 309 347 117 220 237 264 145 125 149 219 197 236 273 349 343 278 334 117 201 266 217 226 141 171 224 229 254 263 280 296 300 301 300 288 297 320 310 315 312 305 312 323
311 37 34 291 218 231 172 248 137 159 234 235 247 137 259 40 13 297 334 19 227 240 219 126 218 249 249 250 253 279 297 304 309 311 313 318 321 321 313 315 310 307 316 323
6 240 255 270 310 219 185 262 204 162 223 215 230 199 226 257 183 230 208 254 237 269 265 203 231 256 248 310 280 288 290 301 305 290 301 325 323 317 313 315 311 302 319 315
224 266 295 311 343 242 234 230 204 204 240 228 190 225 193 262 153 142 251 249 153 245 165 250 264 256 257 315 295 294 298 310 311 322 320 336 324 314 304 315 306 358 340 297
15 210 279 229 272 221 218 213 214 227 232 266 234 202 222 220 203 241 225 234 229 104 205 240 238 260 306 299 282 296 307 317 321 329 344 335 319 316 334 330 32 11 316 11
31 222 270 201 217 235 201 221 266 276 359 329 308 268 190 186 229 222 240 223 121 246 202 246 252 255 284 302 297 318 324 320 332 340 344 330 312 308 309 14 28 354 36 54
226 222 237 231 243 273 231 162 31 340 281 8 324 297 222 271 254 228 271 232 241 216 223 235 253 272 298 306 327 331 329 320 350 349 344 325 326 5 40 35 78 60 67 67
232 234 255 260 258 265 296 231 219 189 243 1 241 252 244 234 252 233 223 161 203 242 218 234 263 286 287 316 334 345 331 7 347 351 329 315 339 58 51 54 72 70 76 74
235 241 216 250 273 246 271 242 234 175 139 70 289 242 230 282 211 233 210 188 208 222 254 253 242 261 300 294 16 22 22 353 4 350 322 320 347 97 82 71 65 77 84 82